#timestamp,LO_Frequency,Hit,StdDev 
1552028415.3,286046997.1,N
1552028435.1,286046996.7,N
1552028455.9,286046997.1,N
1552028475.7,286046996.7,N
1552028495.5,286046996.5,N
1552028515.4,286047000.0,N
1552028535.2,286047000.3,N
1552028555.0,286047002.6,N
1552028555.9,286047002.6,N
1552028575.8,286047001.6,N
1552028595.6,286047000.6,N
1552028615.5,286046999.0,N
1552028635.3,286046996.9,N
1552028655.1,286046998.9,N
1552028675.9,286046999.0,N
1552028695.7,286046999.6,N
1552028715.5,286047001.2,N
1552028735.4,286046999.0,N
1552028755.2,286046998.9,N
1552028775.1,286046999.1,N
1552028776.0,286046999.1,N
1552028795.8,286046999.3,N
1552028815.6,286046999.4,N
1552028835.5,286046997.0,N
1552028855.3,286047000.3,N
1552028875.2,286046999.8,N
1552028895.9,286047001.9,N
1552028915.7,286047000.8,N
1552028935.6,286046996.7,N
1552028955.4,286046997.9,N
1552028975.2,286046998.0,N
1552028995.1,286046997.2,N
1552028996.0,286046997.2,N
1552029015.8,286046996.6,N
1552029035.7,286046999.3,N
1552029055.5,286046998.4,N
1552029075.3,286047000.6,N
1552029095.2,286047000.7,N
1552029115.0,286047000.3,N
1552029115.9,286047000.3,N
1552029135.7,286047001.0,N
1552029155.6,286047000.6,N
1552029175.4,286046998.8,N
1552029195.3,286047004.0,N
1552029215.1,286047001.3,N
1552029216.0,286047001.3,N
1552029235.8,286047002.2,N
1552029255.7,286047000.2,N
1552029275.5,286046998.6,N
1552029295.4,286047000.6,N
1552029315.2,286047000.8,N
1552029335.0,286047000.8,N
1552029335.9,286047000.8,N
1552029355.8,286047001.0,N
1552029375.6,286046998.4,N
1552029395.4,286046997.9,N
1552029415.3,286046996.0,N
1552029435.1,286046995.1,N
1552029455.9,286046995.5,N
1552029475.7,286046995.0,N
1552029495.5,286046999.1,N
1552029515.4,286046999.4,N
1552029535.2,286047001.0,N
1552029555.1,286047002.8,N
1552029556.0,286047002.8,N
1552029575.8,286047000.4,N
1552029595.6,286046999.9,N
1552029615.5,286047000.1,N
1552029635.3,286047002.3,N
1552029655.2,286047000.0,N
1552029675.9,286047000.9,N
1552029695.7,286047002.7,N
1552029715.6,286047001.7,N
1552029735.4,286047002.0,N
1552029755.2,286047002.5,N
1552029775.1,286047001.5,N
1552029776.0,286047001.5,N
1552029795.8,286047002.0,N
1552029815.7,286047000.9,N
1552029835.5,286047002.5,N
1552029855.3,286047004.4,N
1552029875.2,286047004.0,N
1552029895.0,286047003.5,N
1552029895.9,286047003.5,N
1552029915.8,286047002.6,N
1552029935.6,286047002.1,N
1552029955.4,286047001.5,N
1552029975.3,286047002.5,N
1552029995.1,286047002.1,N
1552030015.8,286047004.4,N
1552030035.7,286047003.9,N
1552030055.5,286047002.5,N
1552030075.4,286046999.9,N
1552030095.2,286047002.4,N
1552030115.0,286047000.2,N
1552030115.9,286047000.2,N
1552030135.8,286047002.7,N
1552030155.6,286047002.4,N
1552030175.5,286047001.6,N
1552030195.3,286046999.7,N
1552030215.1,286046999.7,N
1552030235.9,286047000.2,N
1552030255.7,286047000.4,N
1552030275.6,286047002.4,N
1552030295.4,286046999.8,N
1552030315.2,286046999.8,N
1552030335.1,286047000.2,N
1552030336.0,286047000.2,N
1552030355.8,286047000.4,N
1552030375.6,286047001.2,N
1552030395.5,286046998.1,N
1552030415.3,286047000.7,N
1552030435.2,286046998.4,N
1552030455.9,286046999.5,N
1552030475.7,286046998.6,N
1552030495.6,286046999.5,N
1552030515.4,286046996.7,N
1552030535.2,286046999.2,N
1552030555.1,286047000.9,N
1552030556.0,286047000.9,N
1552030575.8,286046999.4,N
1552030595.7,286046998.3,N
1552030615.5,286047001.2,N
1552030635.4,286047000.9,N
1552030655.2,286046998.7,N
1552030675.0,286046999.0,N
1552030675.9,286046999.0,N
1552030695.8,286046997.0,N
1552030715.6,286046997.3,N
1552030735.4,286046999.3,N
1552030755.3,286046998.9,N
1552030775.1,286046997.6,N
1552030795.9,286046997.1,N
1552030815.7,286046996.8,N
1552030835.5,286046997.7,N
1552030855.4,286046995.6,Y
1552030875.2,286046995.0,P
1552030895.1,286046995.2,N
1552030896.0,286046995.2,N
1552030915.8,286046998.0,N
1552030935.6,286046997.8,N
1552030955.5,286046996.8,N
1552030975.3,286046999.6,N
1552030995.2,286046997.2,N
1552031015.9,286046998.0,N
1552031035.7,286046996.0,N
1552031055.6,286046993.5,Y
1552031075.4,286046997.0,P
1552031095.2,286046999.6,P
1552031115.1,286046999.4,N
1552031116.0,286046999.4,N
1552031135.8,286046997.2,N
1552031155.7,286046997.7,N
1552031175.5,286046994.9,Y
1552031195.3,286046999.2,P
1552031215.2,286046997.6,P
1552031235.0,286047011.9,P
1552031235.9,286046999.2,N
1552031255.8,286046998.9,N
1552031275.6,286046998.6,N
1552031295.4,286046999.2,N
1552031315.3,286046997.0,N
1552031335.1,286046999.1,N
1552031355.9,286046997.1,N
1552031375.7,286046996.1,N
1552031395.5,286046995.5,N
1552031415.4,286046993.5,N
1552031435.2,286046996.4,N
1552031455.0,286046995.7,N
1552031455.9,286046995.7,N
1552031475.8,286046993.4,N
1552031495.6,286046995.8,N
1552031515.5,286046995.8,N
1552031535.3,286046994.9,N
1552031555.1,286046995.9,N
1552031575.9,286046995.7,N
1552031595.7,286046993.4,N
1552031615.5,286046995.6,N
1552031635.4,286046995.6,N
1552031655.2,286046993.9,N
1552031675.1,286046995.9,N
1552031676.0,286046995.9,N
1552031695.8,286046996.3,N
1552031715.6,286046993.6,N
1552031735.5,286046993.6,N
1552031755.3,286046996.4,N
1552031775.2,286046993.8,N
1552031795.9,286046995.9,N
1552031815.7,286046993.6,Y
1552031835.6,286046999.4,P
1552031855.4,286046999.3,N
1552031875.3,286047000.7,N
1552031895.1,286047001.2,N
1552031896.0,286047001.2,N
1552031915.8,286046998.9,N
1552031935.7,286046998.7,N
1552031955.5,286047001.1,N
1552031975.4,286046998.9,N
1552031995.2,286046999.4,N
